Flag for Norway Weather past 2 weeks in Lillesand, Norway

Now
44 °F

Quite cool.


Feels Like: 44 °F
Forecast: 37 / 42 °F
Wind: 2 mph from Southwest

Location: Kristiansand / Kjevik

Current Time: Feb 27, 2015 at 12:52:30 PM

Latest Report: Feb 27, 2015 at 12:00 PM


Visibility: N/A

Pressure: 29.83 "Hg

Humidity: 74%

Dew point: 36 °F

Location of LillesandLocation

Historic Weather in Lillesand — Graph

°F

Lillesand temperature yesterday

Maximum temperature yesterday: 40 °F (at 11:00 PM)
Minimum temperature yesterday: 30 °F (at 12:00 AM)
Average temperature yesterday: 38 °F

Past Weeks' High & Low Weather Summary

 TemperatureHumidityPressure
High46 °F (Feb 18, 3:00 PM)100% (Feb 21, 7:00 AM)30.42 "Hg (Feb 21, 7:00 AM)
Low26 °F (Feb 22, 3:00 AM)54% (Feb 22, 2:00 PM)28.91 "Hg (Feb 23, 9:00 AM)
Average38 °F89%29.79 "Hg
* Reported Feb 12 11:00 AM — Feb 27 11:00 AM, Lillesand, Weather by CustomWeather, © 2015

Note: Actual official high and low records may vary slightly from our data, if they occured in-between our weather recording intervals... More about our weather records

Advertising

Lillesand weather history for previous 24 hours

 ConditionsComfort  
Time TempWeatherWind HumidityBarometerVisibility
11:00 AM
Fri, Feb 27
40 °FQuite cool.2 mph81%29.82 "HgN/A
10:00 AM36 °FChilly.1 mph91%29.81 "HgN/A
9:00 AM33 °FChilly.No wind94%29.79 "HgN/A
8:00 AM33 °FChilly.2 mph95%29.76 "HgN/A
7:00 AM34 °FChilly.3 mph91%29.76 "HgN/A
6:00 AM36 °FChilly.3 mph90%29.73 "HgN/A
5:00 AM36 °FChilly.1 mph88%29.70 "HgN/A
2:00 AM40 °FChilly.1 mph97%29.64 "HgN/A
1:00 AM40 °FChilly.2 mph96%29.62 "HgN/A
12:00 AM41 °FQuite cool.7 mph96%29.63 "HgN/A
11:00 PM
Thu, Feb 26
40 °FQuite cool.8 mph94%29.65 "HgN/A
10:00 PM40 °FQuite cool.9 mph93%29.67 "HgN/A
9:00 PM40 °FChilly.9 mph93%29.69 "HgN/A
8:00 PM40 °FChilly.9 mph92%29.71 "HgN/A
7:00 PM40 °FChilly.8 mph92%29.73 "HgN/A
6:00 PM40 °FChilly.6 mph91%29.73 "HgN/A
5:00 PM38 °FChilly.6 mph91%29.76 "HgN/A
4:00 PM39 °FChilly.8 mph87%29.78 "HgN/A
3:00 PM39 °FChilly.8 mph85%29.82 "HgN/A
2:00 PM40 °FChilly.8 mph85%29.85 "HgN/A
1:00 PM39 °FChilly.6 mph86%29.88 "HgN/A
12:00 PM39 °FChilly.7 mph85%29.91 "HgN/A
Weather by CustomWeather, © 2015

See weather overviewHow to use our weather pages